Weather History for Tupelo, MS

Change the Weather History Date:

Monday, January 27, 2014

  Actual Average Record
Temperature  
Mean Temperature 36 °F 42 °F  
Max Temperature 48 °F 53 °F 75 °F (1972)
Min Temperature 23 °F 32 °F -14 °F (1940)
Degree Days  
Heating Degree Days 29 23  
Month to date heating degree days 766 635  
Since 1 July heating degree days 2059 1808  
Cooling Degree Days 0 0  
Month to date cooling degree days 0 0  
Year to date cooling degree days 0 0  
Moisture  
Dew Point 10 °F    
Average Humidity 50    
Maximum Humidity 82    
Minimum Humidity 18    
Precipitation  
Precipitation 0.00 in 0.15 in 1.47 in (1952)
Month to date precipitation 1.77 3.89  
Year to date precipitation 1.77 3.89  
Snow  
Snow 0.00 in 0.00 in 1.00 in (2000)
Month to date snowfall T 0.8  
Since 1 July snowfall T 1.1  
Snow Depth 0.00 in    
Sea Level Pressure  
Sea Level Pressure 30.14 in    
Wind  
Wind Speed 15 mph (NNE)    
Max Wind Speed 29 mph    
Max Gust Speed 38 mph    
Visibility 10 miles    
Events      
T = Trace of Precipitation, MM = Missing Value Source: NWS Daily Summary

Daily Weather History Graph

Daily Weather History Graph

Search for Another Location

Airport:

Trip Planner

Search our weather history database for the weather conditions in past years. The results will help you decide how hot, cold, wet, or windy it might be!

Date:

Astronomy

Jan. 27, 2014 Rise Set
Actual Time 6:55 AM CST 5:20 PM CST
Civil Twilight 6:29 AM CST 5:46 PM CST
Nautical Twilight 5:59 AM CST 6:17 PM CST
Astronomical Twilight 5:29 AM CST 6:46 PM CST
Moon 3:35 AM CST (1/27) 2:08 PM CST (1/27)
Length of Visible Light 11h 17m
Length of Day
10h 24m
Waning Crescent, 14% of the Moon is Illuminated
Jan 27
Waning Crescent
Jan 30
New
Feb 6
First Quarter
Feb 14
Full
Feb 22
Last Quarter

Hourly Weather History & Observations

Time (CST) Temp. Windchill Dew Point Humidity Pressure Visibility Wind Dir Wind Speed Gust Speed Precip Events Conditions
12:53 AM 46.9 °F - 34.0 °F 61% 29.84 in 10.0 mi SSW 3.5 mph - N/A   Clear
1:53 AM 46.9 °F - 34.0 °F 61% 29.85 in 10.0 mi Calm Calm - N/A   Clear
2:53 AM 43.0 °F - 34.0 °F 71% 29.86 in 10.0 mi Calm Calm - N/A   Scattered Clouds
3:53 AM 39.9 °F - 33.1 °F 77% 29.88 in 10.0 mi Calm Calm - N/A   Clear
4:53 AM 37.9 °F - 32.0 °F 79% 29.89 in 10.0 mi Calm Calm - N/A   Mostly Cloudy
5:53 AM 44.1 °F 37.1 °F 34.0 °F 68% 29.95 in 10.0 mi NNE 15.0 mph 23.0 mph N/A   Scattered Clouds
6:53 AM 37.9 °F 27.1 °F 24.1 °F 57% 30.03 in 10.0 mi NNE 23.0 mph 34.5 mph N/A   Clear
7:53 AM 37.0 °F 25.6 °F 23.0 °F 57% 30.10 in 10.0 mi NNE 24.2 mph 33.4 mph N/A   Clear
8:53 AM 36.0 °F 25.0 °F 19.9 °F 52% 30.12 in 10.0 mi NNE 20.7 mph 28.8 mph N/A   Clear
9:53 AM 36.0 °F 24.7 °F 10.9 °F 36% 30.18 in 10.0 mi NE 21.9 mph 36.8 mph N/A   Clear
10:53 AM 37.0 °F 26.4 °F 6.1 °F 28% 30.18 in 10.0 mi NE 20.7 mph 31.1 mph N/A   Clear
11:53 AM 37.0 °F 27.0 °F 3.9 °F 25% 30.19 in 10.0 mi NNE 18.4 mph 28.8 mph N/A   Clear
12:53 PM 39.0 °F 28.8 °F 3.9 °F 23% 30.17 in 10.0 mi NNE 21.9 mph 27.6 mph N/A   Clear
1:53 PM 39.0 °F 29.0 °F 1.0 °F 20% 30.17 in 10.0 mi NNE 20.7 mph 25.3 mph N/A   Clear
2:53 PM 37.9 °F 28.5 °F -2.0 °F 18% 30.18 in 10.0 mi NNE 17.3 mph - N/A   Clear
3:53 PM 35.1 °F 24.8 °F -4.0 °F 19% 30.20 in 10.0 mi NNE 17.3 mph 24.2 mph N/A   Clear
4:53 PM 30.9 °F 18.7 °F -2.9 °F 23% 30.23 in 10.0 mi NE 19.6 mph 26.5 mph N/A   Clear
5:53 PM 28.0 °F 16.1 °F -4.0 °F 25% 30.28 in 10.0 mi NNE 16.1 mph - N/A   Clear
6:53 PM 26.1 °F 13.1 °F -4.0 °F 27% 30.30 in 10.0 mi NE 17.3 mph 25.3 mph N/A   Clear
7:53 PM 25.0 °F 12.6 °F -2.9 °F 30% 30.31 in 10.0 mi NE 15.0 mph - N/A   Clear
8:53 PM 24.1 °F 11.5 °F -2.9 °F 31% 30.32 in 10.0 mi NE 15.0 mph - N/A   Clear
9:53 PM 24.1 °F 11.5 °F -2.9 °F 31% 30.33 in 10.0 mi NE 15.0 mph - N/A   Clear
10:53 PM 23.0 °F 8.3 °F -0.9 °F 35% 30.34 in 10.0 mi NNE 19.6 mph - N/A   Clear
11:53 PM 23.0 °F 8.7 °F -4.0 °F 31% 30.34 in 10.0 mi NE 18.4 mph - N/A   Partly Cloudy